Weather in Muraptal

Russia / Republic of Bashkortostan     52°26′48″N   55°48′49″E
temp.,
°C
wind,
m/s
gust,
m/s
humid.,
%
clouds,
%
prec.,
mm/h
press.,
hPa
HPBL,
m
27 february, sat
sat2723:00−18se6129399 0.1 1021321
02:00−17se8149399 0.1 1018390
05:00−16se101692100 0.2 1014451
08:00−15se101695100 3.1 1009482
11:00−12sse91594100 4.8 1007594
14:00−7sse81393100 0.9 1005595
17:00−5sse61095100 1.9 1003444
20:00−5se359798 0.3 1002128
28 february, sun
sun2823:000ssw489999 1.3 1002410
02:000ssw4799100 0.8 1000360
05:00−2sw3599100 1.2 999182
08:00−2ssw3598100 1.0 999144
11:00−1ssw3598100 2.0 999333
14:000sw35100100 0.9 1000383
17:00−1w5798100 1.3 1002404
20:00−7w489699 0.4 1005230
1 march, mon
mon123:00−9w249698 0.8 100879
02:00−11wnw229689 0.2 101037
05:00−13w229692 0.3 101244
08:00−13wsw129697 0.3 101424
11:00−12sw129495 0.6 1016183
14:00−10wsw229098 0.2 1017335
17:00−9wnw349399 0.4 1018347
20:00−13wnw369693 0.2 1020129
2 march, tue
tue223:00−17nnw239690 0.3 102123
02:00−20nw1210095 0.0 102120
05:00−22w1110097 0.1 102120
08:00−25sw1110077 0.0 102120
11:00−21s349885 0.0 1020168
14:00−18s579595 0.0 1018313
17:00−16s699598 0.1 1016399
20:00−16sse61195100 0.1 1015397
3 march, wed
wed323:00−15sse61195100 0.6 1012376
02:00−12sse71395100 0.8 1008383
05:00−7sse71395100 1.8 1006486
08:00−3s61196100 1.9 1003630
11:00−2ssw61097100 3.5 1002629
14:00−2sw4697100 1.1 1001482
17:00−2wsw479599 1.9 1001469
20:00−5sw389799 0.4 1002288